DELTA 1 R/B, 2096

Orbit data source: Space-Track

DELTA 1 R/B, 2096 is space debris in SSO originally from a launch on Mon, 28 Feb 1966 UTC launched from the Air Force Eastern Test Range (AFETR). Debris objects in space refer to the collection of defunct objects orbiting the Earth. Examples of debris include non-operational satellites, rocket bodies, and fragments generated from explosions, collisions, or faulty payload assembly.

Loading next visibility...
Identifier
2096, 1966-016B
Orbit
SSO
Country
Flag of USUS
Related business
Manufacturer
ABL
Mission
Spacecraft
Bus & Motor
ALTAIR, Unknown motor
Mass
33 kg wet, 33 kg dry
Launch date (UTC)
1966-02-28 (61 years ago)
Launch vehicle
Unknown
Launch site
Air Force Eastern Test Range (AFETR)
Object type
Payload
Rocket body
Debris
Shape & HBR
CYL, 1.1 m
Radar Cross Section
Medium (>0.1 m² and <1 m²)

Expand to show TLE details & history
Last TLE update: 5 hours ago

TLE from 5 hours ago
0 DELTA 1 R/B
1 02096U 66016B   26255.34644678 -.00000032  00000-0  50606-4 0  9995
2 02096 100.8746  88.2012 0039853 342.7601 191.6379 12.70001554805135
Epoch: 2026-09-12T08:18Z
TLE epoch observation values (Epoch: 2026-09-12T08:18:53.001Z)
Latitude
5.51628°
Longitude
153.18143°
Altitude
1,414.323 km
Speed
7.14 km/s
True Right ascension
17h 57m 02s
True Declination
5° 29' 10"
Sunlit
Object was in daylight at epoch
Visualization orbit readout
Latitude
Unknown
Longitude
Unknown
Altitude
Unknown
Speed
Unknown
Apparent Right ascension
Unknown
Apparent Declination
Unknown
Sunlit
N/A
Visualization observer readout
Local Sidereal Time
05:43:52
Azimuth
Unknown
Elevation
Unknown
Doppler factor
Unknown
Orbital elements
Apogee altitude
1,410.32 km
Perigee altitude
1,348.488 km
Semi-major axis
7,757.541 km
Eccentricity
0.00399
Inclination
100.8746°
RAAN
88.2012°
Arg. of periapsis
342.7601°
True anomaly
191.54622°
Mean anomaly
191.6379°
Eccentric anomaly
191.59202°
Mean motion
3.17656 °/min
Orbital period
113.33 mins
BSTAR
0.000050606
Loading maneuver chart data...
Computing Atmospheric mass density...
Loading historical data...
Loading historical data...
Loading historical data...
Loading historical data...
Loading historical data...
Loading historical data...
Loading historical data...
Other satellites on launch #16 in the year 1966 (1966-02-28 UTC)

Documentation

Showing up to 5 results
|